{"data":{"norad_id":49390,"intl_designator":"2021-101A","name":"YAOGAN-35 01A","alt_names":[],"object_type":"PAYLOAD","status":"ACTIVE","operator":null,"country":"PRC","launch_date":"2021-11-06","launch_site_code":"XICLF","launch_vehicle":null,"mission":null,"orbit_class":"UNKNOWN","rcs_meters":null,"size_class":null,"mass_kg":null,"dimensions":null,"purposes":[],"wikipedia_slug":null,"has_3d_model":false,"image_url":null,"decayed_at":null,"tle_current":{"epoch":"2026-09-20T19:18:21.305664Z","epoch_age_seconds":81167,"freshness":"FRESH","line1":"1 49390U 21101A   26263.80441326  .00006781  00000+0  24444-3 0  9999","line2":"2 49390  34.9953  30.6328 0005646 167.9738 192.1113 15.27828838271509","mean_motion":15.27828838,"eccentricity":0.0005646,"inclination_deg":34.9953,"raan_deg":30.6328,"arg_perigee_deg":167.9738,"mean_anomaly_deg":192.1113,"bstar":0.00024444,"rev_number":27150,"period_min":94.25139545638,"perigee_km":478.43068164327,"apogee_km":486.17749171835,"semimajor_km":6860.4410866808,"source":"CELESTRAK","updated_at":"2026-09-21T09:00:08.077432Z"}}}